| time (UTC) | temp F | wind direction | speed MPH | gust MPH | rain 1hr in | rain 24hr in | rain mn in | humidity % | barometer mb |
| 20260505125024 | 52 | 54 | 16.0 | 31.0 | 0.00 | 0.00 | 0.00 | 67 | 1005.6 |
| 20260505124543 | 52 | 40 | 21.0 | 31.0 | 0.00 | 0.00 | 0.00 | 66 | 1005.6 |
| 20260505124020 | 52 | 71 | 19.0 | 34.0 | 0.00 | 0.00 | 0.00 | 66 | 1005.6 |
| 20260505123525 | 52 | 44 | 21.0 | 34.0 | 0.00 | 0.00 | 0.00 | 66 | 1005.4 |
| 20260505123038 | 52 | 48 | 19.0 | 30.0 | 0.00 | 0.00 | 0.00 | 65 | 1005.1 |
| 20260505122521 | 52 | 47 | 19.0 | 30.0 | 0.00 | 0.00 | 0.00 | 65 | 1005.1 |
| 20260505122026 | 52 | 49 | 18.0 | 33.0 | 0.00 | 0.00 | 0.00 | 66 | 1004.9 |
| 20260505121542 | 52 | 31 | 20.0 | 36.0 | 0.00 | 0.00 | 0.00 | 66 | 1004.9 |
| 20260505121021 | 52 | 17 | 19.0 | 36.0 | 0.00 | 0.00 | 0.00 | 66 | 1004.9 |
| 20260505120521 | 52 | 49 | 16.0 | 32.0 | 0.00 | 0.00 | 0.00 | 66 | 1004.8 |
| 20260505120047 | 53 | 58 | 21.0 | 34.0 | 0.00 | 0.00 | 0.00 | 65 | 1004.5 |
| 20260505115520 | 53 | 65 | 23.0 | 34.0 | 0.00 | 0.00 | 0.00 | 64 | 1004.4 |
| 20260505115023 | 53 | 67 | 16.0 | 33.0 | 0.00 | 0.00 | 0.00 | 64 | 1004.3 |
| 20260505114542 | 53 | 55 | 17.0 | 33.0 | 0.00 | 0.00 | 0.00 | 65 | 1004.2 |
| 20260505114023 | 53 | 37 | 19.0 | 33.0 | 0.00 | 0.00 | 0.00 | 64 | 1004.1 |
| 20260505113522 | 53 | 61 | 18.0 | 33.0 | 0.00 | 0.00 | 0.00 | 64 | 1004.0 |
| 20260505113036 | 53 | 52 | 20.0 | 33.0 | 0.00 | 0.00 | 0.00 | 64 | 1003.9 |
| 20260505112527 | 53 | 51 | 19.0 | 30.0 | 0.00 | 0.00 | 0.00 | 65 | 1003.6 |
| 20260505112020 | 53 | 35 | 19.0 | 30.0 | 0.00 | 0.00 | 0.00 | 65 | 1003.6 |
| 20260505111539 | 53 | 44 | 18.0 | 29.0 | 0.00 | 0.00 | 0.00 | 65 | 1003.6 |
| 20260505111023 | 53 | 70 | 19.0 | 30.0 | 0.00 | 0.00 | 0.00 | 65 | 1003.5 |
| 20260505110521 | 53 | 61 | 19.0 | 31.0 | 0.00 | 0.00 | 0.00 | 65 | 1003.3 |
| 20260505102024 | 54 | 63 | 22.0 | 37.0 | 0.00 | 0.00 | 0.00 | 67 | 1002.9 |
| 20260505101543 | 54 | 30 | 20.0 | 35.0 | 0.00 | 0.00 | 0.00 | 67 | 1002.9 |
| 20260505101023 | 54 | 44 | 23.0 | 35.0 | 0.00 | 0.00 | 0.00 | 67 | 1002.8 |
| 20260505100522 | 54 | 65 | 19.0 | 35.0 | 0.00 | 0.00 | 0.00 | 67 | 1002.8 |
| 20260505100041 | 54 | 40 | 21.0 | 35.0 | 0.00 | 0.00 | 0.00 | 68 | 1002.8 |
| 20260505095522 | 54 | 61 | 25.0 | 35.0 | 0.00 | 0.00 | 0.00 | 68 | 1002.6 |
| 20260505095021 | 54 | 56 | 22.0 | 36.0 | 0.00 | 0.00 | 0.00 | 69 | 1002.7 |
| 20260505094537 | 54 | 49 | 22.0 | 36.0 | 0.00 | 0.00 | 0.00 | 69 | 1002.6 |
| 20260505094023 | 54 | 59 | 25.0 | 34.0 | 0.00 | 0.00 | 0.00 | 70 | 1002.4 |
| 20260505093526 | 54 | 61 | 19.0 | 34.0 | 0.00 | 0.00 | 0.00 | 71 | 1002.5 |
| 20260505093037 | 55 | 57 | 22.0 | 34.0 | 0.00 | 0.00 | 0.00 | 72 | 1002.5 |
| 20260505092520 | 55 | 38 | 18.0 | 34.0 | 0.00 | 0.00 | 0.00 | 73 | 1002.5 |
| 20260505092023 | 56 | 26 | 21.0 | 31.0 | 0.00 | 0.00 | 0.00 | 73 | 1002.5 |
| 20260505091537 | 56 | 30 | 15.0 | 28.0 | 0.00 | 0.00 | 0.00 | 72 | 1002.5 |
| 20260505091020 | 56 | 61 | 15.0 | 28.0 | 0.00 | 0.00 | 0.00 | 71 | 1002.3 |
| 20260505090522 | 56 | 63 | 16.0 | 27.0 | 0.00 | 0.00 | 0.00 | 71 | 1002.1 |
| 20260505090040 | 57 | 61 | 16.0 | 32.0 | 0.00 | 0.00 | 0.00 | 72 | 1002.0 |
| 20260505085522 | 57 | 39 | 19.0 | 32.0 | 0.00 | 0.00 | 0.00 | 72 | 1001.9 |
| 20260505085023 | 57 | 72 | 17.0 | 30.0 | 0.00 | 0.00 | 0.00 | 72 | 1001.8 |
| 20260505084546 | 57 | 63 | 18.0 | 31.0 | 0.00 | 0.00 | 0.00 | 72 | 1001.7 |
| 20260505084021 | 57 | 48 | 21.0 | 33.0 | 0.00 | 0.00 | 0.00 | 72 | 1001.8 |
| 20260505083520 | 58 | 36 | 19.0 | 35.0 | 0.00 | 0.00 | 0.00 | 72 | 1001.6 |
| 20260505083038 | 58 | 28 | 24.0 | 35.0 | 0.00 | 0.00 | 0.00 | 72 | 1001.6 |
| 20260505082520 | 59 | 53 | 18.0 | 34.0 | 0.00 | 0.00 | 0.00 | 74 | 1001.7 |
| 20260505082020 | 59 | 49 | 20.0 | 34.0 | 0.00 | 0.00 | 0.00 | 77 | 1001.7 |
| 20260505081537 | 60 | 49 | 16.0 | 26.0 | 0.00 | 0.00 | 0.00 | 78 | 1001.6 |
| 20260505081022 | 60 | 48 | 16.0 | 22.0 | 0.00 | 0.00 | 0.00 | 79 | 1001.4 |
| 20260505080522 | 61 | 30 | 14.0 | 26.0 | 0.00 | 0.00 | 0.00 | 77 | 1001.4 |
| 20260505080037 | 62 | 34 | 18.0 | 26.0 | 0.00 | 0.00 | 0.00 | 75 | 1001.2 |
| 20260505075521 | 62 | 22 | 15.0 | 23.0 | 0.00 | 0.00 | 0.00 | 74 | 1001.1 |
| 20260505075025 | 62 | 51 | 14.0 | 23.0 | 0.00 | 0.00 | 0.00 | 74 | 1000.9 |
| 20260505074540 | 62 | 68 | 16.0 | 23.0 | 0.00 | 0.00 | 0.00 | 74 | 1000.8 |
| 20260505074021 | 62 | 51 | 15.0 | 27.0 | 0.00 | 0.00 | 0.00 | 74 | 1000.9 |
| 20260505073521 | 63 | 19 | 14.0 | 27.0 | 0.00 | 0.00 | 0.00 | 73 | 1000.9 |
| 20260505073044 | 64 | 24 | 14.0 | 28.0 | 0.00 | 0.00 | 0.00 | 72 | 1000.9 |
| 20260505072521 | 64 | 55 | 18.0 | 28.0 | 0.00 | 0.00 | 0.00 | 71 | 1000.8 |
| 20260505072020 | 65 | 44 | 18.0 | 28.0 | 0.00 | 0.00 | 0.00 | 75 | 1000.7 |
| 20260505071537 | 66 | 44 | 9.0 | 16.0 | 0.00 | 0.00 | 0.00 | 79 | 1000.7 |
| 20260505071020 | 65 | 56 | 8.0 | 13.0 | 0.00 | 0.00 | 0.00 | 79 | 1000.6 |
| 20260505070520 | 65 | 51 | 9.0 | 13.0 | 0.00 | 0.00 | 0.00 | 79 | 1000.5 |
| 20260505070048 | 64 | 54 | 8.0 | 11.0 | 0.00 | 0.00 | 0.00 | 79 | 1000.5 |
| 20260505065523 | 64 | 57 | 7.0 | 11.0 | 0.00 | 0.00 | 0.00 | 79 | 1000.5 |
| 20260505065021 | 64 | 44 | 4.0 | 11.0 | 0.00 | 0.00 | 0.00 | 79 | 1000.5 |
| 20260505064541 | 64 | 46 | 6.0 | 11.0 | 0.00 | 0.00 | 0.00 | 78 | 1000.4 |
| 20260505064021 | 64 | 61 | 4.0 | 8.0 | 0.00 | 0.00 | 0.00 | 78 | 1000.4 |
| 20260505063521 | 64 | 47 | 4.0 | 9.0 | 0.00 | 0.00 | 0.00 | 78 | 1000.3 |
| 20260505063039 | 64 | 22 | 4.0 | 10.0 | 0.00 | 0.00 | 0.00 | 78 | 1000.2 |
| 20260505062521 | 63 | 17 | 4.0 | 12.0 | 0.00 | 0.00 | 0.00 | 78 | 1000.2 |
| 20260505062021 | 63 | 352 | 6.0 | 12.0 | 0.00 | 0.00 | 0.00 | 79 | 1000.0 |
| 20260505061541 | 63 | 27 | 6.0 | 9.0 | 0.00 | 0.00 | 0.00 | 78 | 999.9 |
| 20260505061020 | 63 | 16 | 6.0 | 9.0 | 0.00 | 0.00 | 0.00 | 78 | 999.7 |
| 20260505060523 | 63 | 13 | 4.0 | 8.0 | 0.00 | 0.00 | 0.00 | 78 | 999.7 |
| 20260505060039 | 64 | 36 | 3.0 | 6.0 | 0.00 | 0.00 | 0.00 | 78 | 999.6 |
| 20260505055521 | 64 | 46 | 4.0 | 8.0 | 0.00 | 0.00 | 0.00 | 77 | 999.6 |
| 20260505055021 | 64 | 51 | 3.0 | 8.0 | 0.00 | 0.00 | 0.00 | 76 | 999.5 |
| 20260505054540 | 64 | 47 | 5.0 | 8.0 | 0.00 | 0.00 | 0.00 | 76 | 999.6 |
| 20260505054022 | 65 | 30 | 4.0 | 7.0 | 0.00 | 0.00 | 0.00 | 75 | 999.6 |
| 20260505053527 | 65 | 39 | 3.0 | 8.0 | 0.00 | 0.00 | 0.00 | 75 | 999.5 |
| 20260505053049 | 65 | 94 | 4.0 | 9.0 | 0.00 | 0.00 | 0.00 | 74 | 999.4 |
| 20260505052521 | 65 | 128 | 5.0 | 13.0 | 0.00 | 0.00 | 0.00 | 74 | 999.3 |
| 20260505052021 | 66 | 129 | 4.0 | 13.0 | 0.00 | 0.00 | 0.00 | 74 | 999.1 |
| 20260505051539 | 66 | 135 | 6.0 | 11.0 | 0.00 | 0.00 | 0.00 | 74 | 999.0 |
| 20260505051023 | 66 | 163 | 5.0 | 9.0 | 0.00 | 0.00 | 0.00 | 73 | 999.1 |
| 20260505050523 | 66 | 130 | 6.0 | 9.0 | 0.00 | 0.00 | 0.00 | 73 | 999.2 |
| 20260505041550 | 70 | 150 | 9.0 | 17.0 | 0.00 | 0.00 | 0.00 | 72 | 999.2 |
| 20260505041022 | 70 | 174 | 10.0 | 17.0 | 0.00 | 0.00 | 0.00 | 73 | 999.1 |
| 20260505040522 | 71 | 147 | 10.0 | 17.0 | 0.00 | 0.00 | 0.00 | 73 | 999.3 |
| 20260505040048 | 71 | 130 | 9.0 | 17.0 | 0.00 | 0.00 | 0.00 | 72 | 999.4 |
| 20260505035520 | 71 | 150 | 8.0 | 17.0 | 0.00 | 0.00 | 0.00 | 72 | 999.4 |
| 20260505035020 | 71 | 122 | 10.0 | 14.0 | 0.00 | 0.00 | 0.00 | 72 | 999.0 |
| 20260505034538 | 71 | 118 | 8.0 | 11.0 | 0.00 | 0.00 | 0.00 | 71 | 999.3 |
| 20260505034021 | 71 | 119 | 7.0 | 11.0 | 0.00 | 0.00 | 0.00 | 71 | 999.6 |
| 20260505033521 | 71 | 104 | 7.0 | 10.0 | 0.00 | 0.00 | 0.00 | 71 | 999.8 |
| 20260505033039 | 72 | 132 | 5.0 | 12.0 | 0.00 | 0.00 | 0.00 | 70 | 999.8 |
| 20260505032521 | 72 | 133 | 5.0 | 16.0 | 0.00 | 0.00 | 0.00 | 70 | 999.6 |
| 20260505032021 | 72 | 165 | 8.0 | 20.0 | 0.00 | 0.00 | 0.00 | 70 | 999.5 |
| 20260505031543 | 72 | 169 | 10.0 | 23.0 | 0.00 | 0.00 | 0.00 | 70 | 999.5 |
| 20260505031020 | 72 | 149 | 13.0 | 23.0 | 0.00 | 0.00 | 0.00 | 70 | 999.5 |
| 20260505030520 | 72 | 153 | 13.0 | 20.0 | 0.00 | 0.00 | 0.00 | 70 | 999.6 |
| 20260505030037 | 72 | 174 | 13.0 | 20.0 | 0.00 | 0.00 | 0.00 | 70 | 999.8 |
| 20260505025520 | 72 | 148 | 13.0 | 20.0 | 0.00 | 0.00 | 0.00 | 69 | 999.8 |
| 20260505025022 | 72 | 150 | 9.0 | 16.0 | 0.00 | 0.00 | 0.00 | 68 | 1000.0 |
| 20260505024547 | 72 | 157 | 9.0 | 13.0 | 0.00 | 0.00 | 0.00 | 68 | 999.8 |
| 20260505024023 | 72 | 160 | 7.0 | 15.0 | 0.00 | 0.00 | 0.00 | 67 | 999.7 |
| 20260505023523 | 73 | 151 | 7.0 | 15.0 | 0.00 | 0.00 | 0.00 | 68 | 999.5 |
| 20260505023041 | 73 | 138 | 8.0 | 16.0 | 0.00 | 0.00 | 0.00 | 67 | 999.6 |
| 20260505022523 | 73 | 193 | 9.0 | 17.0 | 0.00 | 0.00 | 0.00 | 67 | 999.8 |
| 20260505022021 | 73 | 147 | 11.0 | 17.0 | 0.00 | 0.00 | 0.00 | 67 | 999.7 |
| 20260505021539 | 73 | 175 | 9.0 | 15.0 | 0.00 | 0.00 | 0.00 | 66 | 1000.0 |
| 20260505021022 | 73 | 180 | 9.0 | 18.0 | 0.00 | 0.00 | 0.00 | 66 | 1000.0 |
| 20260505020521 | 73 | 174 | 10.0 | 18.0 | 0.00 | 0.00 | 0.00 | 66 | 999.8 |
| 20260505020038 | 73 | 160 | 10.0 | 16.0 | 0.00 | 0.00 | 0.00 | 65 | 999.4 |
| 20260505015521 | 73 | 155 | 8.0 | 17.0 | 0.00 | 0.00 | 0.00 | 64 | 999.5 |
| 20260505015022 | 73 | 153 | 9.0 | 18.0 | 0.00 | 0.00 | 0.00 | 64 | 999.3 |
| 20260505014558 | 73 | 153 | 11.0 | 18.0 | 0.00 | 0.00 | 0.00 | 63 | 999.1 |
| 20260505014022 | 74 | 166 | 9.0 | 15.0 | 0.00 | 0.00 | 0.00 | 63 | 999.2 |
| 20260505013520 | 74 | 173 | 9.0 | 14.0 | 0.00 | 0.00 | 0.00 | 62 | 999.1 |
| 20260505013038 | 74 | 150 | 9.0 | 13.0 | 0.00 | 0.00 | 0.00 | 61 | 999.0 |
| 20260505012521 | 74 | 146 | 8.0 | 11.0 | 0.00 | 0.00 | 0.00 | 61 | 999.2 |
| 20260505012022 | 74 | 148 | 6.0 | 12.0 | 0.00 | 0.00 | 0.00 | 60 | 999.0 |
| 20260505011548 | 75 | 179 | 7.0 | 16.0 | 0.00 | 0.00 | 0.00 | 60 | 998.7 |
| 20260505011021 | 75 | 162 | 8.0 | 16.0 | 0.00 | 0.00 | 0.00 | 59 | 998.7 |
| 20260505010521 | 75 | 136 | 8.0 | 15.0 | 0.00 | 0.00 | 0.00 | 58 | 998.5 |
| 20260505010040 | 75 | 147 | 10.0 | 15.0 | 0.00 | 0.00 | 0.00 | 58 | 998.7 |
| 20260505005521 | 76 | 159 | 8.0 | 14.0 | 0.00 | 0.00 | 0.00 | 58 | 998.7 |
| 20260505005023 | 76 | 144 | 5.0 | 12.0 | 0.00 | 0.00 | 0.00 | 57 | 998.8 |
| 20260505004541 | 76 | 155 | 7.0 | 13.0 | 0.00 | 0.00 | 0.00 | 57 | 999.0 |
| 20260505004022 | 76 | 150 | 9.0 | 13.0 | 0.00 | 0.00 | 0.00 | 56 | 999.0 |
| 20260505003521 | 76 | 143 | 7.0 | 13.0 | 0.00 | 0.00 | 0.00 | 56 | 998.9 |
| 20260505003037 | 76 | 168 | 8.0 | 14.0 | 0.00 | 0.00 | 0.00 | 55 | 998.9 |
| 20260505002523 | 77 | 182 | 7.0 | 14.0 | 0.00 | 0.00 | 0.00 | 55 | 999.1 |
| 20260505002020 | 77 | 202 | 8.0 | 15.0 | 0.00 | 0.00 | 0.00 | 55 | 999.0 |
| 20260505001538 | 77 | 184 | 7.0 | 15.0 | 0.00 | 0.00 | 0.00 | 54 | 999.1 |
| 20260505001023 | 77 | 158 | 9.0 | 14.0 | 0.00 | 0.00 | 0.00 | 54 | 999.0 |
| 20260505000526 | 77 | 182 | 8.0 | 14.0 | 0.00 | 0.00 | 0.00 | 53 | 999.2 |
| 20260505000048 | 78 | 141 | 9.0 | 17.0 | 0.00 | 0.00 | 0.00 | 53 | 999.1 |
| 20260504235520 | 78 | 165 | 9.0 | 17.0 | 0.00 | 0.00 | 0.00 | 53 | 999.0 |
| 20260504235024 | 78 | 173 | 9.0 | 17.0 | 0.00 | 0.00 | 0.00 | 52 | 999.2 |
| 20260504234545 | 78 | 193 | 8.0 | 23.0 | 0.00 | 0.00 | 0.00 | 51 | 999.2 |
| 20260504234025 | 79 | 175 | 11.0 | 23.0 | 0.00 | 0.00 | 0.00 | 51 | 999.1 |
| 20260504233521 | 79 | 149 | 12.0 | 20.0 | 0.00 | 0.00 | 0.00 | 50 | 999.1 |
| 20260504233056 | 79 | 215 | 12.0 | 20.0 | 0.00 | 0.00 | 0.00 | 50 | 999.3 |
| 20260504232522 | 79 | 198 | 11.0 | 18.0 | 0.00 | 0.00 | 0.00 | 48 | 999.3 |
| 20260504232020 | 80 | 210 | 8.0 | 18.0 | 0.00 | 0.00 | 0.00 | 48 | 999.2 |
| 20260504231540 | 80 | 171 | 11.0 | 20.0 | 0.00 | 0.00 | 0.00 | 47 | 999.2 |
| 20260504231023 | 80 | 214 | 11.0 | 21.0 | 0.00 | 0.00 | 0.00 | 47 | 999.1 |
| 20260504230520 | 80 | 188 | 12.0 | 21.0 | 0.00 | 0.00 | 0.00 | 48 | 999.3 |
| 20260504230039 | 80 | 181 | 11.0 | 21.0 | 0.00 | 0.00 | 0.00 | 48 | 999.1 |
| 20260504225521 | 81 | 199 | 9.0 | 22.0 | 0.00 | 0.00 | 0.00 | 47 | 999.1 |
| 20260504225021 | 81 | 188 | 12.0 | 24.0 | 0.00 | 0.00 | 0.00 | 46 | 999.2 |
| 20260504224540 | 81 | 158 | 14.0 | 24.0 | 0.00 | 0.00 | 0.00 | 47 | 999.2 |
| 20260504224023 | 81 | 185 | 9.0 | 23.0 | 0.00 | 0.00 | 0.00 | 47 | 999.2 |
| 20260504223521 | 81 | 161 | 13.0 | 23.0 | 0.00 | 0.00 | 0.00 | 46 | 999.2 |
| 20260504223054 | 81 | 198 | 11.0 | 20.0 | 0.00 | 0.00 | 0.00 | 47 | 999.2 |
| 20260504222522 | 82 | 181 | 12.0 | 24.0 | 0.00 | 0.00 | 0.00 | 46 | 999.2 |
| 20260504222020 | 82 | 188 | 12.0 | 24.0 | 0.00 | 0.00 | 0.00 | 46 | 999.2 |
| 20260504221540 | 82 | 165 | 11.0 | 18.0 | 0.00 | 0.00 | 0.00 | 46 | 999.1 |
| 20260504221021 | 82 | 181 | 12.0 | 23.0 | 0.00 | 0.00 | 0.00 | 47 | 999.3 |
| 20260504220521 | 82 | 190 | 11.0 | 24.0 | 0.00 | 0.00 | 0.00 | 45 | 999.2 |
| 20260504220040 | 82 | 209 | 12.0 | 24.0 | 0.00 | 0.00 | 0.00 | 45 | 999.3 |
| 20260504215520 | 82 | 158 | 12.0 | 23.0 | 0.00 | 0.00 | 0.00 | 44 | 999.3 |
| 20260504215021 | 82 | 203 | 13.0 | 21.0 | 0.00 | 0.00 | 0.00 | 44 | 999.4 |
| 20260504214537 | 82 | 202 | 11.0 | 24.0 | 0.00 | 0.00 | 0.00 | 44 | 999.5 |
| 20260504214021 | 82 | 194 | 13.0 | 24.0 | 0.00 | 0.00 | 0.00 | 45 | 999.5 |
| 20260504213521 | 83 | 181 | 11.0 | 22.0 | 0.00 | 0.00 | 0.00 | 43 | 999.6 |
| 20260504213050 | 83 | 217 | 10.0 | 22.0 | 0.00 | 0.00 | 0.00 | 42 | 999.5 |
| 20260504212520 | 84 | 188 | 13.0 | 21.0 | 0.00 | 0.00 | 0.00 | 41 | 999.4 |
| 20260504212023 | 85 | 167 | 9.0 | 23.0 | 0.00 | 0.00 | 0.00 | 43 | 999.5 |
| 20260504211537 | 84 | 164 | 12.0 | 23.0 | 0.00 | 0.00 | 0.00 | 43 | 999.6 |
| 20260504211022 | 84 | 219 | 13.0 | 22.0 | 0.00 | 0.00 | 0.00 | 42 | 999.8 |
| 20260504210520 | 84 | 169 | 10.0 | 22.0 | 0.00 | 0.00 | 0.00 | 40 | 999.7 |
| 20260504210040 | 85 | 182 | 14.0 | 22.0 | 0.00 | 0.00 | 0.00 | 41 | 999.8 |
| 20260504205521 | 85 | 173 | 13.0 | 24.0 | 0.00 | 0.00 | 0.00 | 42 | 999.8 |
| 20260504205023 | 85 | 194 | 15.0 | 24.0 | 0.00 | 0.00 | 0.00 | 41 | 999.9 |
| 20260504204543 | 85 | 200 | 10.0 | 20.0 | 0.00 | 0.00 | 0.00 | 40 | 999.9 |
| 20260504204025 | 85 | 173 | 11.0 | 19.0 | 0.00 | 0.00 | 0.00 | 41 | 999.9 |
| 20260504203521 | 85 | 204 | 11.0 | 24.0 | 0.00 | 0.00 | 0.00 | 40 | 1000.0 |
| 20260504203051 | 85 | 175 | 11.0 | 24.0 | 0.00 | 0.00 | 0.00 | 41 | 1000.0 |
| 20260504202521 | 85 | 173 | 14.0 | 24.0 | 0.00 | 0.00 | 0.00 | 41 | 1000.2 |
| 20260504202020 | 85 | 159 | 13.0 | 24.0 | 0.00 | 0.00 | 0.00 | 43 | 1000.2 |
| 20260504201539 | 85 | 194 | 14.0 | 23.0 | 0.00 | 0.00 | 0.00 | 41 | 1000.3 |
| 20260504201023 | 85 | 201 | 9.0 | 23.0 | 0.00 | 0.00 | 0.00 | 40 | 1000.3 |
| 20260504200520 | 85 | 181 | 11.0 | 23.0 | 0.00 | 0.00 | 0.00 | 41 | 1000.3 |
| 20260504200038 | 85 | 186 | 9.0 | 21.0 | 0.00 | 0.00 | 0.00 | 41 | 1000.4 |
| 20260504195520 | 86 | 224 | 7.0 | 20.0 | 0.00 | 0.00 | 0.00 | 41 | 1000.5 |
| 20260504195020 | 85 | 198 | 10.0 | 20.0 | 0.00 | 0.00 | 0.00 | 42 | 1000.5 |
| 20260504194537 | 85 | 147 | 7.0 | 11.0 | 0.00 | 0.00 | 0.00 | 40 | 1000.6 |
| 20260504194021 | 85 | 215 | 6.0 | 12.0 | 0.00 | 0.00 | 0.00 | 40 | 1000.6 |
| 20260504193524 | 85 | 213 | 4.0 | 17.0 | 0.00 | 0.00 | 0.00 | 39 | 1000.7 |
| 20260504193037 | 84 | 219 | 7.0 | 17.0 | 0.00 | 0.00 | 0.00 | 42 | 1000.9 |
| 20260504192522 | 84 | 186 | 8.0 | 16.0 | 0.00 | 0.00 | 0.00 | 41 | 1000.8 |
| 20260504192021 | 85 | 213 | 5.0 | 17.0 | 0.00 | 0.00 | 0.00 | 39 | 1000.9 |
| 20260504191541 | 85 | 231 | 9.0 | 19.0 | 0.00 | 0.00 | 0.00 | 39 | 1001.0 |
| 20260504191021 | 85 | 178 | 10.0 | 19.0 | 0.00 | 0.00 | 0.00 | 43 | 1000.9 |
| 20260504190521 | 84 | 150 | 6.0 | 18.0 | 0.00 | 0.00 | 0.00 | 42 | 1001.0 |
| 20260504190037 | 84 | 158 | 5.0 | 18.0 | 0.00 | 0.00 | 0.00 | 42 | 1001.0 |
| 20260504185520 | 84 | 256 | 9.0 | 20.0 | 0.00 | 0.00 | 0.00 | 41 | 1001.1 |
| 20260504185021 | 84 | 216 | 10.0 | 20.0 | 0.00 | 0.00 | 0.00 | 41 | 1001.2 |
| 20260504184540 | 84 | 254 | 10.0 | 18.0 | 0.00 | 0.00 | 0.00 | 42 | 1001.1 |
| 20260504184021 | 84 | 246 | 7.0 | 17.0 | 0.00 | 0.00 | 0.00 | 42 | 1001.1 |
| 20260504183522 | 83 | 169 | 7.0 | 17.0 | 0.00 | 0.00 | 0.00 | 44 | 1001.1 |
| 20260504183037 | 84 | 202 | 9.0 | 16.0 | 0.00 | 0.00 | 0.00 | 41 | 1001.2 |
| 20260504182521 | 83 | 185 | 5.0 | 14.0 | 0.00 | 0.00 | 0.00 | 42 | 1001.3 |
| 20260504182021 | 83 | 235 | 6.0 | 14.0 | 0.00 | 0.00 | 0.00 | 43 | 1001.4 |
| 20260504181544 | 83 | 225 | 6.0 | 16.0 | 0.00 | 0.00 | 0.00 | 43 | 1001.4 |
| 20260504181021 | 83 | 190 | 6.0 | 16.0 | 0.00 | 0.00 | 0.00 | 42 | 1001.4 |
| 20260504180522 | 83 | 152 | 6.0 | 13.0 | 0.00 | 0.00 | 0.00 | 44 | 1001.6 |
| 20260504180037 | 82 | 188 | 8.0 | 19.0 | 0.00 | 0.00 | 0.00 | 43 | 1001.6 |
| 20260504175522 | 82 | 248 | 5.0 | 19.0 | 0.00 | 0.00 | 0.00 | 41 | 1001.6 |
| 20260504175021 | 82 | 198 | 9.0 | 16.0 | 0.00 | 0.00 | 0.00 | 42 | 1001.6 |
| 20260504174536 | 81 | 242 | 6.0 | 15.0 | 0.00 | 0.00 | 0.00 | 43 | 1001.8 |
| 20260504174022 | 81 | 245 | 7.0 | 16.0 | 0.00 | 0.00 | 0.00 | 45 | 1001.7 |
| 20260504173522 | 81 | 234 | 8.0 | 19.0 | 0.00 | 0.00 | 0.00 | 44 | 1001.8 |
| 20260504173032 | 81 | 201 | 8.0 | 19.0 | 0.00 | 0.00 | 0.00 | 44 | 1001.7 |
| 20260504172520 | 80 | 205 | 9.0 | 17.0 | 0.00 | 0.00 | 0.00 | 44 | 1001.7 |
| 20260504172021 | 80 | 202 | 9.0 | 18.0 | 0.00 | 0.00 | 0.00 | 46 | 1001.7 |
| 20260504171545 | 80 | 183 | 8.0 | 18.0 | 0.00 | 0.00 | 0.00 | 44 | 1001.7 |
| 20260504171023 | 80 | 225 | 7.0 | 18.0 | 0.00 | 0.00 | 0.00 | 44 | 1001.8 |
| 20260504170523 | 79 | 245 | 9.0 | 18.0 | 0.00 | 0.00 | 0.00 | 47 | 1001.8 |
| 20260504151021 | 72 | 218 | 12.0 | 25.0 | 0.00 | 0.00 | 0.00 | 52 | 1002.3 |
| 20260504150520 | 72 | 227 | 11.0 | 25.0 | 0.00 | 0.00 | 0.00 | 50 | 1002.3 |
| 20260504141020 | 68 | 244 | 9.0 | 22.0 | 0.00 | 0.00 | 0.00 | 55 | 1002.5 |
| 20260504140521 | 68 | 204 | 9.0 | 21.0 | 0.00 | 0.00 | 0.00 | 54 | 1002.5 |